Flag for U.S.A. Weather past 2 weeks in Sacramento, California, U.S.A.

Now
65 °F

Sunny.


Feels Like: 65 °F
Forecast: 49 / 82 °F
Wind: 7 mph from North

Location: Sacramento Executive Airport


UV Index: 5 (Moderate)

Visibility: 10 mi


Pressure: 30.12 "Hg

Humidity: 59%

Dew point: 50 °F

Location of SacramentoLocation

Historic Weather in Sacramento

°F

Sacramento temperature yesterday

Maximum temperature yesterday: 75 °F (at 1:53 PM)
Minimum temperature yesterday: 50 °F (at 5:53 AM)
Average temperature yesterday: 61 °F

Past Weeks' High & Low Weather Summary

 TemperatureHumidityPressure
High83 °F (Apr 8, 4:53 PM)100% (Apr 6, 5:53 AM)30.22 "Hg (Apr 6, 5:53 AM)
Low45 °F (Apr 6, 5:53 AM)21% (Apr 13, 3:53 PM)29.75 "Hg (Apr 17, 4:53 PM)
Average63 °F67%29.96 "Hg
* Reported Apr 5 8:53 AM — Apr 20 8:53 AM, Sacramento, Weather by CustomWeather, © 2014

Note: Actual official high and low records may vary slightly from our data, if they occured in-between our weather recording intervals... More about our weather records

Advertising

Historic Weather Conditions — Data for Previous 24 hours

 ConditionsComfort  
Time TempWeatherWind HumidityBarometerVisibility
8:53 AM
Apr 20
61 °FSunny.6 mph78%30.13 "Hg10 mi
7:53 AM56 °FSunny.No wind93%30.12 "Hg10 mi
6:53 AM50 °FClear.No wind96%30.12 "Hg10 mi
5:53 AM51 °FClear.3 mph92%30.10 "Hg10 mi
4:57 AM48 °FFog.No wind100%30.09 "Hg2 mi
3:53 AM52 °FClear.No wind93%30.10 "Hg10 mi
2:53 AM52 °FClear.No wind93%30.09 "Hg10 mi
1:53 AM52 °FClear.No wind93%30.10 "Hg10 mi
12:53 AM55 °FClear.No wind90%30.09 "Hg10 mi
11:53 PM
Apr 19
56 °FClear.3 mph87%30.09 "Hg10 mi
10:53 PM57 °FClear.No wind87%30.08 "Hg10 mi
9:53 PM57 °FClear.5 mph87%30.07 "Hg10 mi
8:53 PM58 °FClear.5 mph84%30.05 "Hg10 mi
7:53 PM61 °FSunny.8 mph75%30.02 "Hg10 mi
6:53 PM65 °FSunny.12 mph66%30.01 "Hg10 mi
5:53 PM69 °FSunny.8 mph57%30.00 "Hg10 mi
4:53 PM73 °FSunny.12 mph48%30.00 "Hg10 mi
3:53 PM74 °FSunny.14 mph37%30.01 "Hg10 mi
2:53 PM75 °FSunny.15 mph33%30.01 "Hg10 mi
1:53 PM75 °FSunny.12 mph31%30.01 "Hg10 mi
12:53 PM70 °FSunny.10 mph38%30.02 "Hg10 mi
11:53 AM67 °FSunny.7 mph45%30.02 "Hg10 mi
10:53 AM64 °FSunny.10 mph49%30.02 "Hg10 mi
Weather by CustomWeather, © 2014

See weather overview